Location: Unspecified
(0.0000°N, 0.0000°E)
Time: 00:08:30
(UTC+02:00)

SWIFT - Visible Passes

Search period start: 07 July 2015 00:00
Search period end: 17 July 2015 00:00
Orbit: 553 x 569 km, 20.6° (Epoch: 05 July)

Date Brightness Start Highest point End Pass type
(mag) Time Alt. Az. Time Alt. Az. Time Alt. Az.
07 Jul 3.3 21:59:02 10° WNW 22:02:15 43° NNW 22:02:15 43° NNW visible
08 Jul 2.9 21:55:31 10° WNW 21:59:00 57° NW 21:59:00 57° NW visible
09 Jul 2.8 21:52:07 10° WNW 21:55:46 58° WSW 21:55:46 58° WSW visible
10 Jul 4.7 06:30:14 12° SSE 06:30:14 12° SSE 06:31:44 10° SE visible
10 Jul 3.1 21:48:50 10° W 21:52:32 45° SW 21:52:32 45° SW visible
11 Jul 4.5 06:27:01 15° SSE 06:27:01 15° SSE 06:29:27 10° SE visible
11 Jul 3.5 21:45:40 10° W 21:49:19 33° SSW 21:49:19 33° SSW visible
12 Jul 4.2 06:23:49 20° SSE 06:23:49 20° SSE 06:26:45 10° ESE visible
12 Jul 3.9 21:42:39 10° WSW 21:46:06 24° SSW 21:46:06 24° SSW visible
13 Jul 3.8 06:20:36 27° SSE 06:20:36 27° SSE 06:23:50 10° E visible
13 Jul 4.3 21:39:49 10° WSW 21:42:50 18° SSW 21:42:54 18° SSW visible
14 Jul 3.4 06:17:24 37° SE 06:17:24 37° SE 06:20:45 10° E visible
14 Jul 4.6 21:37:15 10° SW 21:39:30 14° SSW 21:39:41 14° SSW visible
15 Jul 3.1 06:14:10 47° ESE 06:14:10 47° ESE 06:17:30 10° E visible
15 Jul 4.9 21:35:22 10° SSW 21:36:12 10° SSW 21:36:27 10° S visible
16 Jul 3.1 06:10:56 51° ENE 06:10:56 51° ENE 06:14:08 10° ENE visible
